Beatrice, NE

12:39 AM CDT on May 30, 2017 (GMT -0500)
Beatrice Municipal

Weather History for KBIE - January, 1998

Change the Weather History Date:

Saturday, January 3, 1998

  Actual Average Record
Temperature  
Mean Temperature 32 °F -  
Max Temperature 44 °F 29 °F 58 °F (1955)
Min Temperature 19 °F 9 °F -8 °F (1968)
Degree Days  
Heating Degree Days 34    
Moisture  
Dew Point 22 °F    
Average Humidity 81    
Maximum Humidity 100    
Minimum Humidity 68    
Precipitation  
Precipitation 0.00 in - - ()
Sea Level Pressure  
Sea Level Pressure 30.03 in    
Wind  
Wind Speed 13 mph (North)    
Max Wind Speed 26 mph    
Max Gust Speed 33 mph    
Visibility 9 miles    
Events      
Averages and records for this station are not official NWS values.
T = Trace of Precipitation, MM = Missing Value Source: NWS Daily Summary

Daily Weather History Graph

Daily Weather History Graph

Search for Another Location

Airport or City:

Trip Planner

Search our weather history database for the weather conditions in past years. The results will help you decide how hot, cold, wet, or windy it might be!

Date:

Astronomy

Jan. 03, 1998 Rise Set
Actual Time 7:50 AM CST 5:13 PM CST
Civil Twilight 7:19 AM CST 5:43 PM CST
Nautical Twilight 6:45 AM CST 6:17 PM CST
Astronomical Twilight 6:12 AM CST 6:50 PM CST
Moon 11:10 AM CST (1/3) 11:07 PM CST (1/3)
Length of Visible Light 10h 24m
Length of Day
9h 23m
Waxing Crescent, 30% of the Moon is Illuminated
Jan 3
Waxing Crescent
Jan 5
First Quarter
Jan 12
Full
Jan 20
Last Quarter
Jan 28
New

Hourly Weather History & Observations

Time (CST) Temp. Windchill Dew Point Humidity Pressure Visibility Wind Dir Wind Speed Gust Speed Precip Events Conditions
12:29 AM 44.6 °F 40.7 °F 42.8 °F 93% 29.71 in 10.0 mi South 6.9 mph - N/A   Clear
12:50 AM 42.8 °F 37.5 °F 41.0 °F 93% 29.71 in 7.0 mi South 9.2 mph - N/A   Clear
1:32 AM 42.8 °F 38.0 °F 41.0 °F 93% 29.70 in 10.0 mi SSW 8.1 mph - N/A   Clear
1:49 AM 42.8 °F 39.3 °F 39.2 °F 87% 29.70 in 7.0 mi South 5.8 mph - N/A   Clear
2:15 AM 39.2 °F 35.9 °F 39.2 °F 100% 29.71 in 5.0 mi South 4.6 mph - N/A   Clear
2:51 AM 39.2 °F 35.9 °F 37.4 °F 93% 29.72 in 0.5 mi South 4.6 mph - N/A   Unknown
3:29 AM 39.2 °F 34.2 °F 37.4 °F 93% 29.77 in 7.0 mi NW 6.9 mph - N/A   Clear
3:51 AM 37.4 °F 31.4 °F 35.6 °F 93% 29.78 in 7.0 mi NNW 8.1 mph - N/A   Clear
4:13 AM 37.4 °F - 35.6 °F 93% 29.78 in 10.0 mi Calm Calm - N/A   Clear
4:29 AM 37.4 °F 34.9 °F 35.6 °F 93% 29.79 in 7.0 mi NW 3.5 mph - N/A   Clear
5:09 AM 37.4 °F 28.2 °F 35.6 °F 93% 29.84 in 10.0 mi NNW 16.1 mph - N/A   Clear
5:30 AM 37.4 °F 26.9 °F 35.6 °F 93% 29.86 in 7.0 mi NNW 20.7 mph - N/A   Mostly Cloudy
5:49 AM 33.8 °F 21.6 °F 30.2 °F 87% 29.88 in 10.0 mi North 23.0 mph 32.2 mph N/A   Overcast
6:12 AM 30.2 °F 18.5 °F 26.6 °F 86% 29.90 in 10.0 mi North 17.3 mph 29.9 mph N/A   Overcast
6:29 AM 28.4 °F 14.4 °F 24.8 °F 86% 29.93 in 10.0 mi NNW 23.0 mph - N/A   Overcast
7:12 AM 26.6 °F 11.1 °F 23.0 °F 86% 29.95 in 10.0 mi North 26.5 mph 29.9 mph N/A   Overcast
7:30 AM 26.6 °F 13.1 °F 23.0 °F 86% 29.94 in 10.0 mi North 19.6 mph 31.1 mph N/A   Overcast
7:49 AM 24.8 °F 9.6 °F 24.8 °F 100% 29.95 in 10.0 mi North 23.0 mph 29.9 mph N/A   Overcast
8:29 AM 24.8 °F 10.0 °F 21.2 °F 86% 29.98 in 10.0 mi North 21.9 mph - N/A   Overcast
8:49 AM 24.8 °F 11.9 °F 21.2 °F 86% 30.00 in 10.0 mi North 16.1 mph 25.3 mph N/A   Overcast
10:32 AM 24.8 °F 10.7 °F 19.4 °F 80% 30.06 in 10.0 mi North 19.6 mph 28.8 mph N/A   Overcast
10:50 AM 24.8 °F 11.1 °F 19.4 °F 80% 30.06 in 10.0 mi North 18.4 mph 33.4 mph N/A   Overcast
11:13 AM 24.8 °F 9.3 °F 19.4 °F 80% 30.07 in 10.0 mi North 24.2 mph 31.1 mph N/A   Overcast
11:29 AM 24.8 °F 10.3 °F 21.2 °F 86% 30.06 in 10.0 mi North 20.7 mph 27.6 mph N/A   Overcast
11:50 AM 24.8 °F 10.0 °F 19.4 °F 80% 30.07 in 10.0 mi North 21.9 mph 28.8 mph N/A   Overcast
12:12 PM 24.8 °F 9.6 °F 19.4 °F 80% 30.06 in 10.0 mi North 23.0 mph 28.8 mph N/A   Overcast
12:29 PM 24.8 °F 10.0 °F 19.4 °F 80% 30.07 in 10.0 mi North 21.9 mph 27.6 mph N/A   Overcast
1:29 PM 24.8 °F 10.3 °F 17.6 °F 74% 30.07 in 10.0 mi North 20.7 mph 28.8 mph N/A   Overcast
2:10 PM 24.8 °F 10.0 °F 17.6 °F 74% 30.07 in 10.0 mi North 21.9 mph - N/A   Overcast
2:29 PM 24.8 °F 10.3 °F 17.6 °F 74% 30.09 in 10.0 mi North 20.7 mph 26.5 mph N/A   Overcast
2:50 PM 24.8 °F 11.1 °F 19.4 °F 80% 30.08 in 10.0 mi NNE 18.4 mph 28.8 mph N/A   Overcast
3:50 PM 23.0 °F 8.0 °F 15.8 °F 74% 30.11 in 10.0 mi North 20.7 mph 25.3 mph N/A   Overcast
4:09 PM 21.2 °F 6.0 °F 14.0 °F 74% 30.14 in 10.0 mi North 19.6 mph 27.6 mph N/A   Overcast
4:50 PM 21.2 °F 5.6 °F 15.8 °F 80% 30.15 in 10.0 mi North 20.7 mph 25.3 mph N/A   Overcast
5:09 PM 21.2 °F 6.4 °F 14.0 °F 74% 30.16 in 10.0 mi North 18.4 mph 25.3 mph N/A   Overcast
5:30 PM 21.2 °F 6.4 °F 15.8 °F 80% 30.16 in 10.0 mi North 18.4 mph - N/A   Overcast
5:53 PM 21.2 °F 7.8 °F 14.0 °F 74% 30.15 in 10.0 mi North 15.0 mph 23.0 mph N/A   Overcast
6:08 PM 21.2 °F 6.4 °F 14.0 °F 74% 30.17 in 10.0 mi North 18.4 mph 25.3 mph N/A   Overcast
6:30 PM 21.2 °F 6.4 °F 15.8 °F 80% 30.17 in 10.0 mi North 18.4 mph 23.0 mph N/A   Overcast
6:50 PM 21.2 °F 8.3 °F 12.2 °F 68% 30.18 in 10.0 mi North 13.8 mph 18.4 mph N/A   Overcast
7:08 PM 21.2 °F 7.3 °F 12.2 °F 68% 30.19 in 10.0 mi North 16.1 mph - N/A   Overcast
7:30 PM 21.2 °F 8.9 °F 12.2 °F 68% 30.20 in 10.0 mi North 12.7 mph - N/A   Overcast
7:50 PM 19.4 °F 6.0 °F 10.4 °F 68% 30.20 in 10.0 mi North 13.8 mph - N/A   Overcast
8:32 PM 19.4 °F 6.6 °F 12.2 °F 74% 30.21 in 10.0 mi North 12.7 mph - N/A   Overcast
8:50 PM 19.4 °F 6.0 °F 10.4 °F 68% 30.21 in 10.0 mi North 13.8 mph - N/A   Overcast
9:08 PM 19.4 °F 5.5 °F 12.2 °F 74% 30.19 in 10.0 mi North 15.0 mph - N/A   Overcast
9:28 PM 19.4 °F 7.9 °F 10.4 °F 68% 30.22 in 10.0 mi North 10.4 mph - N/A   Overcast
9:48 PM 19.4 °F 6.0 °F 10.4 °F 68% 30.19 in 10.0 mi NNE 13.8 mph 18.4 mph N/A   Overcast
10:10 PM 19.4 °F 7.9 °F 12.2 °F 74% 30.19 in 10.0 mi North 10.4 mph - N/A   Overcast
10:31 PM 19.4 °F 5.5 °F 12.2 °F 74% 30.19 in 10.0 mi North 15.0 mph - N/A   Overcast
10:48 PM 19.4 °F 8.6 °F 12.2 °F 74% 30.24 in 10.0 mi North 9.2 mph - N/A   Overcast
11:10 PM 19.4 °F 8.6 °F 12.2 °F 74% 30.24 in 10.0 mi North 9.2 mph - N/A   Overcast
11:28 PM 19.4 °F 8.6 °F 12.2 °F 74% 30.23 in 10.0 mi North 9.2 mph - N/A   Overcast